Location: Gro�wechsungen
(51.4926°N, 10.6901°E)
Time: 14:25:51
(UTC+00:00)

Cosmos 2082 Rocket - Pass Details

Date: 23 January 2021
Orbit: 832 x 854 km, 71.0° (Epoch: 04 March)

Event Time Altitude Azimuth Distance (km) Brightness Sun altitude
Rises 20:32:57 0° 321° (NW) 3,436 6.1 -42.9°
Reaches altitude 10° 20:35:59 10° 305° (NW) 2,494 5.2 -43.3°
Enters shadow 20:37:56 17° 288° (WNW) 2,051 4.7 -43.5°
